Content
SEND FEEDBACK

Daily
Averages
Monthly
Summary
United States of America

OSAWATOMIE, KANSAS


Home > North America > United States > Kansas
Elevation: 860 feet     Latitude: 38 30N     Longitude: 094 58W

WEATHER
 
SELECT A DAY
Number of Records: 191,169;   Date Range: 1/1/95 - 8/12/14
 
SHARE

PRINT THIS DATA

[ ← Previous Day ]
WEATHER ALMANAC - JANUARY 31, 2013
[ Next Day → ]
[ °C ]   °F
Weather ElementAverageHighLow
Temperature16.7 °F24.1 °F (3:53 am)8.1 °F (7:53 pm)
Dewpoint8.2 °F18 °F (3:53 am) (7:00 pm)
Humidity69.6 %82 % (2:53 am)57 % (12:53 pm)
Barometer30.25 in30.52 in (9:53 pm)30.00 in (3:53 am)
Wind Speed11.3 mph23 mph (12:53 pm)
Wind Gust29.9 mph (2:53 pm)
Weather ElementAverage
Visibility9.9 mi
Wind DirectionW (274 °)

Weather ElementTotal
Precipitation---
Heating Degree Days48.9 (Base 65)
Averaged from 20 records on January 31, 2013
WEATHER CONDITIONS BREAKOUT
WIND DIRECTION BREAKOUT
WEATHER BY HOUR - JANUARY 31, 2013
[ °C ]   °F
Local TimeTemperatureDewpointHumidityBarometerVisibilityWind DirectionWind SpeedGust SpeedPrecipitationEventsConditions
1:53 AM19.0 °F14.0 °F81 %30.01 in10.0 miSSW (210°)5.8 mphClear
2:53 AM21.9 °F17.1 °F82 %30.01 in10.0 miSW (220°)9.2 mphOvercast
3:53 AM24.1 °F18.0 °F77 %30.00 in10.0 miWSW (240°)4.6 mphOvercast
5:53 AM23.0 °F18.0 °F81 %30.00 in10.0 miCalmMostly Cloudy
6:53 AM23.0 °F18.0 °F81 %30.04 in10.0 miNW (320°)10.4 mphMostly Cloudy
7:53 AM21.9 °F15.1 °F75 %30.09 in9.0 miNNW (340°)16.1 mphMostly Cloudy
8:53 AM21.9 °F14.0 °F72 %30.12 in10.0 miNorth (350°)16.1 mphPartly Cloudy
9:53 AM19.9 °F10.0 °F65 %30.16 in10.0 miNNW (330°)12.7 mph23.0 mphScattered Clouds
10:53 AM19.9 °F8.1 °F60 %30.20 in10.0 miNW (320°)19.6 mph25.3 mphOvercast
11:53 AM19.0 °F7.0 °F59 %30.24 in10.0 miNW (320°)18.4 mph28.8 mphOvercast
12:53 PM19.9 °F7.0 °F57 %30.26 in10.0 miNNW (330°)23.0 mph27.6 mphOvercast
2:53 PM19.9 °F8.1 °F60 %30.30 in10.0 miNW (310°)23.0 mph29.9 mphPartly Cloudy
3:53 PM12.9 °F1.0 °F59 %30.35 in10.0 miNNW (330°)18.4 mph29.9 mphClear
4:53 PM14.0 °F1.9 °F59 %30.36 in10.0 miNW (310°)13.8 mph23.0 mphClear
6:53 PM10.9 °F1.9 °F67 %30.43 in10.0 miNNW (340°)10.4 mphClear
7:53 PM8.1 °F1.0 °F73 %30.45 in10.0 miNorth (10°)5.8 mphClear
8:53 PM9.0 °F0.0 °F67 %30.49 in10.0 miNW (320°)6.9 mphClear
9:53 PM9.0 °F1.0 °F70 %30.52 in10.0 miWest (270°)3.5 mphClear
10:53 PM8.1 °F1.0 °F73 %30.51 in10.0 miNW (320°)4.6 mph0.00 inClear
11:53 PM8.1 °F1.0 °F73 %30.51 in9.0 miWNW (290°)3.5 mph0.00 inSnowLight Snow
Hourly data recorded from KIXD, located miles away from Osawatomie, Kansas







STORIES FROM OUR PARTNERS